Vorticity
2 4 2 4 0 13 17 10 7 1 2 21 18 6 2 3 10 17 19 19 11 13 16 17 14 16 14 -0 -1 4 4 7 7 0 -4 17 28 10 0 3 22 17 15 7 2
4 4 6 9 2 16 18 7 7 0 8 16 13 -1 11 7 1 15 21 12 2 17 13 8 23 23 8 10 -1 0 12 2 -1 3 8 1 42 17 20 15 16 7 9 8 4
7 7 6 5 3 15 16 9 7 6 17 15 7 6 -3 10 4 20 22 4 14 6 10 20 14 6 9 11 1 2 8 4 3 2 4 10 2 12 29 3 19 13 19 8 9
6 5 3 1 3 13 15 13 11 18 12 7 11 4 3 20 21 14 7 9 10 11 6 14 8 20 6 10 10 8 4 11 7 10 38 4 5 3 13 9 6 3 10 7 7
6 7 4 5 5 15 16 11 13 -1 8 6 3 6 15 10 28 8 7 6 7 10 7 17 12 12 7 20 9 4 10 0 27 27 9 -5 5 4 12 5 4 1 2 9 10
5 6 3 4 5 18 14 8 13 5 21 3 8 9 5 14 21 7 8 7 24 14 18 16 25 14 19 2 14 20 6 20 -6 2 -4 2 7 3 15 3 6 1 5 8 5
7 4 7 4 10 20 6 12 13 11 20 3 3 7 3 9 14 4 18 22 14 13 20 27 4 4 1 13 22 16 5 16 15 5 1 6 4 17 5 2 7 7 8 10 5
8 4 6 11 13 13 13 2 19 23 11 5 14 1 3 7 10 10 28 9 12 12 10 9 5 8 0 3 -2 -1 7 4 1 8 1 8 2 18 5 10 8 4 5 9 7
7 6 4 4 18 14 2 3 24 23 1 10 7 6 5 35 10 9 23 15 8 11 -2 3 3 5 7 -3 1 -0 3 5 13 11 11 4 5 -6 2 -1 3 5 7 11 6
9 9 13 5 15 13 1 11 19 13 8 12 4 4 16 24 14 3 12 -4 4 10 6 1 31 -3 18 5 3 2 3 7 5 16 3 9 1 5 5 10 4 8 2 7 8
7 9 7 7 8 20 1 21 15 12 8 7 4 2 16 18 7 6 14 1 -15 8 -3 9 5 -3 -6 7 6 11 5 8 15 18 15 6 8 11 3 3 12 13 2 6 5
5 9 2 9 12 12 11 16 13 6 7 9 4 9 18 18 2 4 24 0 4 -15 -5 -7 7 -7 6 4 5 7 25 3 1 9 -1 5 4 4 8 7 10 11 15 13 9
4 11 3 8 17 9 12 11 6 8 7 5 10 13 19 17 14 8 21 1 8 10 -0 9 4 3 3 3 4 25 1 -4 7 1 17 5 7 7 13 5 5 2 4 2 4
5 9 9 6 14 12 7 5 13 6 12 13 13 13 15 18 11 10 14 3 3 3 5 -0 4 -2 0 6 -3 8 1 -3 2 9 -1 4 4 4 1 -1 8 5 4 7 8
7 5 10 11 10 9 5 2 9 17 15 12 16 15 15 8 12 13 6 -4 0 2 -0 -3 -3 14 18 3 6 -2 27 0 -6 -4 -5 5 -1 13 -0 -1 6 5 7 7 9
6 5 11 5 13 10 7 16 18 17 13 20 11 10 8 11 12 13 17 1 -0 -5 1 -3 1 -4 -2 12 10 -1 23 3 -6 8 12 8 5 12 2 3 4 6 10 9 6
8 7 10 11 7 6 12 13 14 13 7 10 10 9 8 8 12 14 13 20 4 6 -4 2 -0 -3 11 17 18 13 -2 12 13 14 13 11 9 3 3 8 15 13 9 9 10
5 5 8 9 6 8 13 12 12 14 12 12 11 9 9 12 12 8 5 5 14 9 3 1 8 18 17 4 5 -2 2 7 5 5 6 8 12 15 12 10 9 11 15 14 11
5 4 9 11 4 13 12 11 15 4 5 6 9 8 8 10 10 11 15 16 18 18 17 21 14 9 7 7 8 12 8 8 5 11 12 17 19 17 16 15 18 16 8 4 4
9 7 16 7 8 11 11 15 7 5 7 7 5 6 7 7 6 6 5 5 6 7 7 10 9 9 9 8 10 7 7 10 12 15 15 25 16 13 19 12 5 5 3 1 2
8 3 10 3 8 10 14 7 3 5 7 8 6 5 5 4 3 4 6 6 5 6 6 8 9 12 7 10 13 14 15 13 10 11 16 8 3 2 0 3 3 -0 3 4 3
7 4 12 10 11 11 6 5 0 6 8 3 3 4 2 2 2 1 3 5 6 5 6 6 7 8 9 11 14 10 10 11 9 8 4 3 -2 4 5 3 3 5 4 3 3
9 13 7 12 10 8 2 6 3 7 3 3 3 5 6 9 11 10 12 9 8 11 10 6 13 13 11 13 6 9 8 8 5 5 8 7 6 2 1 4 3 5 6 4 4
4 7 8 13 10 6 3 5 6 6 -0 7 3 12 15 16 13 12 11 12 12 11 9 16 14 13 10 6 8 6 6 3 2 0 1 2 3 5 3 2 2 3 4 4 4
3 5 10 13 5 5 3 6 5 4 5 -2 3 12 15 12 13 13 11 12 11 8 11 7 10 8 7 8 7 6 4 1 1 1 -0 -1 1 4 3 3 3 3 1 4 2
1 10 11 13 5 4 3 6 1 9 1 -2 1 8 11 17 14 12 12 12 11 14 14 11 10 8 7 8 8 2 5 2 2 5 3 3 1 1 1 1 2 3 5 5 3
4 11 8 13 3 4 4 7 3 -0 2 -0 -0 1 6 9 16 15 14 14 16 16 13 11 5 7 8 6 5 7 8 7 4 2 1 1 0 1 1 1 2 3 3 5 5
Height
5814 5811 5809 5805 5801 5795 5790 5787 5785 5782 5778 5776 5774 5773 5772 5771 5770 5767 5766 5768 5769 5769 5770 5773 5776 5780 5785 5791 5797 5801 5806 5808 5809 5809 5810 5808 5807 5808 5809 5809 5808 5808 5808 5810 5810
5811 5806 5804 5800 5796 5791 5786 5783 5781 5779 5776 5773 5772 5772 5771 5769 5768 5765 5764 5765 5767 5767 5769 5772 5774 5778 5785 5791 5795 5799 5804 5805 5807 5807 5808 5806 5805 5806 5807 5806 5805 5806 5808 5808 5809
5804 5802 5798 5796 5792 5786 5782 5779 5777 5775 5773 5771 5770 5770 5768 5767 5766 5764 5763 5764 5765 5767 5769 5772 5775 5779 5785 5790 5794 5797 5801 5801 5805 5805 5806 5804 5806 5804 5805 5806 5805 5806 5807 5808 5810
5798 5796 5792 5790 5788 5782 5778 5775 5774 5772 5770 5769 5769 5768 5766 5764 5765 5762 5762 5763 5765 5766 5769 5772 5775 5780 5784 5788 5792 5796 5799 5800 5802 5803 5803 5805 5807 5807 5807 5806 5807 5808 5809 5809 5810
5791 5790 5787 5786 5783 5777 5775 5772 5770 5769 5767 5767 5767 5766 5765 5763 5762 5762 5762 5763 5764 5766 5769 5771 5775 5779 5783 5787 5792 5795 5797 5800 5800 5801 5802 5805 5807 5806 5806 5806 5806 5808 5809 5809 5809
5785 5784 5781 5781 5778 5772 5771 5769 5767 5765 5764 5764 5764 5765 5763 5763 5761 5761 5761 5762 5762 5765 5767 5769 5773 5778 5782 5786 5790 5793 5797 5798 5799 5802 5803 5804 5806 5806 5807 5807 5807 5809 5810 5809 5810
5779 5778 5776 5776 5772 5768 5767 5764 5762 5761 5760 5761 5762 5763 5762 5762 5761 5761 5761 5762 5763 5766 5767 5770 5775 5779 5783 5786 5789 5793 5796 5797 5799 5801 5803 5805 5805 5805 5807 5807 5808 5809 5809 5810 5810
5773 5772 5771 5771 5766 5764 5762 5760 5758 5756 5758 5759 5760 5761 5761 5760 5761 5761 5761 5763 5765 5768 5771 5773 5777 5780 5783 5787 5790 5793 5796 5798 5800 5801 5802 5804 5804 5805 5807 5807 5808 5808 5808 5808 5809
5767 5767 5766 5765 5761 5760 5758 5756 5754 5754 5756 5757 5758 5758 5759 5758 5760 5762 5762 5765 5768 5770 5771 5774 5778 5781 5784 5787 5791 5793 5794 5797 5799 5800 5801 5804 5804 5806 5807 5807 5807 5807 5807 5808 5808
5760 5760 5761 5760 5756 5756 5754 5752 5752 5752 5754 5755 5756 5758 5757 5757 5758 5761 5764 5766 5768 5770 5772 5776 5777 5780 5785 5788 5792 5792 5796 5797 5798 5800 5801 5802 5804 5805 5806 5806 5806 5806 5807 5807 5807
5753 5754 5755 5754 5752 5751 5749 5749 5751 5751 5751 5753 5754 5754 5753 5755 5758 5761 5764 5767 5769 5771 5775 5777 5781 5784 5785 5788 5791 5794 5797 5798 5799 5800 5802 5803 5804 5805 5805 5805 5806 5806 5806 5806 5806
5747 5748 5750 5748 5748 5747 5745 5746 5747 5749 5750 5750 5750 5751 5752 5754 5757 5759 5764 5768 5771 5772 5776 5779 5780 5785 5786 5789 5791 5793 5795 5797 5800 5801 5803 5804 5804 5805 5805 5804 5804 5805 5805 5805 5805
5741 5743 5744 5744 5743 5743 5741 5744 5744 5745 5747 5747 5747 5748 5750 5753 5755 5757 5763 5766 5770 5774 5775 5779 5782 5784 5786 5789 5791 5793 5795 5797 5799 5800 5802 5803 5804 5804 5804 5804 5804 5804 5804 5804 5803
5734 5737 5739 5739 5740 5738 5739 5741 5742 5743 5744 5745 5746 5747 5749 5751 5754 5756 5761 5765 5768 5774 5776 5779 5782 5784 5786 5788 5790 5792 5794 5795 5798 5799 5802 5802 5806 5802 5802 5802 5802 5801 5801 5800 5799
5728 5731 5733 5734 5734 5733 5737 5737 5739 5740 5741 5743 5744 5745 5747 5750 5754 5756 5759 5764 5766 5771 5777 5780 5781 5783 5785 5787 5789 5790 5792 5794 5796 5798 5799 5800 5801 5798 5799 5799 5798 5798 5796 5795 5794
5720 5725 5728 5728 5728 5730 5733 5734 5736 5738 5738 5741 5742 5745 5747 5750 5752 5756 5759 5764 5767 5771 5774 5778 5780 5781 5783 5784 5786 5788 5791 5793 5794 5795 5795 5796 5797 5797 5795 5794 5793 5792 5791 5790 5788
5713 5718 5722 5721 5724 5726 5729 5731 5734 5735 5738 5741 5742 5745 5747 5749 5752 5755 5759 5763 5766 5770 5773 5776 5778 5779 5781 5781 5783 5786 5789 5790 5791 5790 5792 5792 5791 5792 5790 5788 5786 5786 5785 5784 5783
5705 5709 5715 5716 5718 5723 5725 5729 5732 5735 5736 5739 5741 5744 5746 5748 5752 5755 5758 5761 5764 5768 5771 5774 5776 5776 5778 5779 5781 5783 5785 5787 5786 5787 5788 5786 5785 5786 5784 5782 5781 5781 5781 5779 5778
5698 5702 5708 5711 5714 5719 5723 5726 5731 5733 5736 5739 5741 5743 5746 5749 5752 5754 5757 5760 5762 5765 5769 5770 5771 5773 5775 5776 5778 5779 5781 5783 5782 5782 5782 5782 5781 5779 5778 5778 5778 5778 5777 5776 5775
5690 5695 5701 5706 5710 5715 5719 5724 5728 5732 5736 5738 5741 5743 5746 5749 5752 5754 5756 5759 5761 5763 5765 5768 5769 5770 5771 5773 5774 5776 5778 5779 5779 5778 5778 5778 5777 5776 5775 5775 5775 5775 5774 5773 5771
5680 5685 5693 5699 5704 5710 5715 5722 5726 5731 5734 5737 5740 5743 5746 5748 5750 5753 5755 5758 5759 5761 5762 5764 5766 5768 5768 5770 5771 5772 5773 5775 5775 5776 5775 5776 5776 5774 5773 5773 5772 5772 5770 5769 5766
5669 5677 5685 5692 5698 5706 5711 5718 5724 5728 5732 5736 5739 5741 5744 5747 5748 5750 5752 5754 5756 5757 5759 5760 5761 5763 5765 5766 5767 5769 5770 5771 5772 5774 5773 5773 5775 5772 5772 5771 5769 5768 5766 5764 5761
5659 5669 5678 5685 5692 5701 5706 5714 5720 5726 5730 5734 5737 5740 5742 5743 5745 5746 5748 5750 5751 5753 5755 5756 5757 5760 5761 5764 5765 5766 5767 5769 5770 5771 5771 5771 5771 5769 5768 5767 5766 5764 5761 5758 5754
5652 5661 5671 5678 5689 5698 5703 5710 5717 5723 5727 5731 5735 5737 5738 5739 5740 5742 5744 5745 5747 5749 5750 5752 5754 5756 5759 5760 5761 5763 5764 5765 5766 5767 5767 5768 5765 5764 5762 5761 5759 5756 5753 5750 5746
5641 5653 5664 5669 5681 5691 5699 5707 5713 5719 5725 5729 5733 5734 5735 5736 5737 5738 5740 5742 5744 5745 5747 5749 5751 5753 5755 5756 5758 5760 5761 5762 5762 5763 5762 5763 5762 5758 5754 5754 5752 5749 5745 5742 5737
5633 5644 5656 5670 5679 5687 5692 5701 5709 5716 5722 5727 5730 5731 5732 5733 5734 5735 5736 5738 5740 5742 5743 5746 5749 5750 5751 5753 5755 5756 5757 5759 5758 5758 5757 5755 5756 5751 5748 5745 5743 5740 5736 5732 5728
5627 5638 5653 5664 5672 5681 5689 5698 5706 5713 5719 5723 5726 5728 5730 5731 5731 5732 5733 5734 5736 5737 5740 5742 5745 5747 5749 5750 5750 5751 5755 5754 5753 5752 5750 5748 5746 5743 5739 5737 5734 5730 5726 5722 5717